YKB YSBK-YSBK

Flight info

Callsign YKB
Flight time N/A
Altitude 4500
Route RIC BTH YMDG PKS BTH RIC
Aircraft DA42/L-VGDW/C

Departure

Time 2026-04-21 11:08
Airport Sydney Bankstown Airport (YSBK)

Arrival

Time N/A
Airport Sydney Bankstown Airport (YSBK)
Time Latitude Longitude Altitude Speed Heading
2026-04-21 11:03 -33.91796 150.99072 26 ft 0 kts 203°
2026-04-21 11:05 -33.91802 150.99069 31 ft 3 kts 193°
2026-04-21 11:05 -33.91833 150.99048 31 ft 8 kts 227°
2026-04-21 11:05 -33.91869 150.98975 31 ft 11 kts 241°
2026-04-21 11:06 -33.91934 150.98908 30 ft 14 kts 219°
2026-04-21 11:06 -33.91981 150.98808 30 ft 13 kts 252°
2026-04-21 11:06 -33.91964 150.98704 30 ft 9 kts 243°
2026-04-21 11:06 -33.91977 150.98692 30 ft 0 kts 178°
2026-04-21 11:07 -33.91984 150.98692 29 ft 4 kts 180°
2026-04-21 11:07 -33.92058 150.98736 29 ft 24 kts 124°
2026-04-21 11:07 -33.92260 150.99099 37 ft 74 kts 123°
2026-04-21 11:07 -33.92528 150.99633 309 ft 74 kts 126°
2026-04-21 11:08 -33.92806 151.00195 585 ft 85 kts 123°
2026-04-21 11:08 -33.93054 151.00881 845 ft 98 kts 112°
2026-04-21 11:08 -33.92890 151.01732 1075 ft 116 kts 64°
2026-04-21 11:08 -33.92202 151.02322 1299 ft 128 kts 34°
2026-04-21 11:09 -33.91308 151.02572 1506 ft 141 kts 356°
2026-04-21 11:09 -33.90418 151.02089 1708 ft 144 kts 313°
2026-04-21 11:09 -33.89784 151.01156 1920 ft 145 kts 303°
2026-04-21 11:09 -33.89172 151.00181 2123 ft 147 kts 302°
2026-04-21 11:10 -33.88549 150.99201 2324 ft 146 kts 303°
2026-04-21 11:10 -33.87933 150.98233 2524 ft 145 kts 303°
2026-04-21 11:10 -33.87321 150.97264 2725 ft 145 kts 302°
2026-04-21 11:10 -33.86704 150.96294 2927 ft 146 kts 302°
2026-04-21 11:11 -33.86080 150.95322 3135 ft 148 kts 302°
2026-04-21 11:11 -33.85449 150.94335 3341 ft 149 kts 303°
2026-04-21 11:11 -33.84814 150.93336 3542 ft 151 kts 302°
2026-04-21 11:11 -33.84162 150.92339 3741 ft 154 kts 311°
2026-04-21 11:12 -33.83238 150.91687 3948 ft 155 kts 335°
2026-04-21 11:12 -33.82242 150.91183 4144 ft 154 kts 335°
2026-04-21 11:12 -33.81259 150.90659 4351 ft 155 kts 334°
2026-04-21 11:12 -33.80301 150.90104 4554 ft 155 kts 331°
2026-04-21 11:13 -33.79332 150.89519 4757 ft 156 kts 331°
2026-04-21 11:13 -33.78367 150.88932 4964 ft 155 kts 332°
2026-04-21 11:13 -33.77399 150.88345 5174 ft 156 kts 330°
2026-04-21 11:13 -33.76430 150.87754 5366 ft 155 kts 330°
2026-04-21 11:14 -33.75464 150.87170 5566 ft 155 kts 331°
2026-04-21 11:14 -33.74518 150.86598 5787 ft 153 kts 332°
2026-04-21 11:14 -33.73568 150.86023 5996 ft 153 kts 331°
2026-04-21 11:14 -33.72584 150.85426 6015 ft 164 kts 331°
2026-04-21 11:15 -33.71538 150.84795 6020 ft 172 kts 332°
2026-04-21 11:15 -33.70450 150.84137 6024 ft 177 kts 332°
2026-04-21 11:15 -33.69340 150.83465 6025 ft 180 kts 331°
2026-04-21 11:15 -33.68211 150.82782 6029 ft 183 kts 332°
2026-04-21 11:16 -33.67087 150.82103 6026 ft 183 kts 332°
2026-04-21 11:16 -33.65962 150.81423 6027 ft 180 kts 331°
2026-04-21 11:16 -33.64848 150.80751 6029 ft 178 kts 332°
2026-04-21 11:16 -33.63744 150.80084 6029 ft 177 kts 331°
2026-04-21 11:17 -33.62644 150.79421 6027 ft 176 kts 332°
2026-04-21 11:17 -33.61550 150.78760 6025 ft 176 kts 332°
2026-04-21 11:17 -33.60454 150.78100 6030 ft 176 kts 332°
2026-04-21 11:17 -33.59374 150.77449 6029 ft 175 kts 333°
2026-04-21 11:18 -33.58226 150.76936 6028 ft 176 kts 346°
2026-04-21 11:18 -33.57008 150.76753 6026 ft 176 kts
2026-04-21 11:18 -33.55793 150.76916 6027 ft 175 kts 15°
2026-04-21 11:18 -33.54651 150.77409 6029 ft 173 kts 30°
2026-04-21 11:19 -33.53648 150.78186 6031 ft 171 kts 42°
2026-04-21 11:19 -33.53025 150.79329 6022 ft 161 kts 83°
2026-04-21 11:19 -33.53170 150.80572 6024 ft 151 kts 123°
2026-04-21 11:19 -33.53900 150.81437 6033 ft 147 kts 153°
2026-04-21 11:20 -33.54884 150.81695 6032 ft 146 kts 183°
2026-04-21 11:20 -33.55838 150.81259 6041 ft 151 kts 212°
2026-04-21 11:20 -33.56658 150.80483 6028 ft 152 kts 216°
2026-04-21 11:20 -33.57478 150.79690 6028 ft 150 kts 214°
2026-04-21 11:21 -33.58302 150.78921 6030 ft 150 kts 213°
2026-04-21 11:21 -33.59139 150.78155 6033 ft 151 kts 213°
2026-04-21 11:21 -33.59947 150.77348 6026 ft 154 kts 225°
2026-04-21 11:21 -33.60340 150.76153 6024 ft 163 kts 262°
2026-04-21 11:22 -33.59993 150.74835 6023 ft 173 kts 306°
2026-04-21 11:22 -33.58990 150.74057 6030 ft 175 kts 347°
2026-04-21 11:22 -33.57822 150.74167 6031 ft 170 kts 28°
2026-04-21 11:22 -33.56870 150.74973 6034 ft 167 kts 46°
2026-04-21 11:23 -33.55996 150.75906 6034 ft 169 kts 46°
2026-04-21 11:23 -33.55106 150.76825 6032 ft 169 kts 44°
2026-04-21 11:23 -33.54179 150.77700 6037 ft 170 kts 42°
2026-04-21 11:23 -33.53362 150.78691 6027 ft 165 kts 68°
2026-04-21 11:24 -33.53197 150.79978 6029 ft 154 kts 105°
2026-04-21 11:24 -33.53681 150.81047 6039 ft 147 kts 139°
2026-04-21 11:24 -33.54577 150.81570 6040 ft 144 kts 171°
2026-04-21 11:24 -33.55568 150.81375 6036 ft 149 kts 204°
2026-04-21 11:25 -33.56433 150.80651 6033 ft 151 kts 213°
2026-04-21 11:25 -33.57258 150.79889 6027 ft 151 kts 214°
2026-04-21 11:25 -33.58088 150.79118 6031 ft 150 kts 213°
2026-04-21 11:25 -33.58923 150.78349 6031 ft 151 kts 213°
2026-04-21 11:26 -33.59753 150.77578 6029 ft 152 kts 216°
2026-04-21 11:26 -33.60301 150.76497 6028 ft 161 kts 252°
2026-04-21 11:26 -33.60160 150.75152 6021 ft 171 kts 292°
2026-04-21 11:26 -33.59299 150.74175 6029 ft 175 kts 336°
2026-04-21 11:27 -33.58112 150.74035 6026 ft 172 kts 17°
2026-04-21 11:27 -33.57096 150.74726 6041 ft 167 kts 45°
2026-04-21 11:27 -33.56219 150.75642 6036 ft 168 kts 47°
2026-04-21 11:27 -33.55355 150.76563 6035 ft 168 kts 44°
2026-04-21 11:28 -33.54446 150.77452 6033 ft 169 kts 43°
2026-04-21 11:28 -33.53552 150.78355 6030 ft 167 kts 55°
2026-04-21 11:28 -33.53171 150.79590 6034 ft 155 kts 95°
2026-04-21 11:28 -33.53481 150.80770 6039 ft 148 kts 129°
2026-04-21 11:29 -33.54283 150.81486 6034 ft 145 kts 162°
2026-04-21 11:29 -33.55277 150.81514 6037 ft 147 kts 193°
2026-04-21 11:29 -33.56175 150.80887 6038 ft 152 kts 212°
2026-04-21 11:29 -33.57012 150.80116 6033 ft 152 kts 214°
2026-04-21 11:30 -33.57835 150.79350 6029 ft 151 kts 213°
2026-04-21 11:30 -33.58657 150.78563 6030 ft 151 kts 214°
2026-04-21 11:30 -33.59475 150.77765 6027 ft 152 kts 214°
2026-04-21 11:30 -33.60208 150.76850 6020 ft 156 kts 234°
2026-04-21 11:31 -33.60407 150.75547 6024 ft 166 kts 271°
2026-04-21 11:31 -33.60205 150.74170 6022 ft 168 kts 277°
2026-04-21 11:31 -33.59963 150.72809 6025 ft 169 kts 277°
2026-04-21 11:31 -33.59721 150.71430 6026 ft 168 kts 277°
2026-04-21 11:32 -33.59486 150.70052 6026 ft 168 kts 277°
2026-04-21 11:32 -33.59255 150.68687 6022 ft 169 kts 277°
2026-04-21 11:32 -33.59022 150.67302 6023 ft 169 kts 277°
2026-04-21 11:32 -33.58787 150.65915 6026 ft 170 kts 277°
2026-04-21 11:33 -33.58550 150.64513 6022 ft 171 kts 277°
2026-04-21 11:33 -33.58317 150.63132 6023 ft 172 kts 277°
2026-04-21 11:33 -33.58078 150.61728 6026 ft 171 kts 277°
2026-04-21 11:33 -33.57839 150.60319 6022 ft 172 kts 277°
2026-04-21 11:34 -33.57603 150.58923 6023 ft 173 kts 277°
2026-04-21 11:34 -33.57363 150.57510 6015 ft 171 kts 277°
2026-04-21 11:34 -33.57127 150.56114 6025 ft 171 kts 277°
2026-04-21 11:34 -33.56890 150.54725 6012 ft 173 kts 276°
2026-04-21 11:35 -33.56644 150.53306 5963 ft 170 kts 279°
2026-04-21 11:35 -33.56383 150.51960 6025 ft 166 kts 275°
2026-04-21 11:35 -33.56175 150.50581 6017 ft 169 kts 275°
2026-04-21 11:35 -33.55953 150.49212 6020 ft 170 kts 276°
2026-04-21 11:36 -33.55717 150.47822 6022 ft 170 kts 276°
2026-04-21 11:36 -33.55478 150.46428 6021 ft 171 kts 277°
2026-04-21 11:36 -33.55234 150.45031 6031 ft 171 kts 277°
2026-04-21 11:36 -33.54998 150.43629 6025 ft 172 kts 277°
2026-04-21 11:37 -33.54840 150.42694 6036 ft 173 kts 277°
2026-04-21 11:37 -33.54598 150.41278 6031 ft 173 kts 277°
2026-04-21 11:37 -33.54359 150.39867 6035 ft 172 kts 277°
2026-04-21 11:37 -33.54032 150.38005 6027 ft 171 kts 277°
2026-04-21 11:38 -33.53866 150.37072 6043 ft 173 kts 278°
2026-04-21 11:38 -33.53625 150.35646 6011 ft 174 kts 276°
2026-04-21 11:38 -33.53311 150.33777 6033 ft 172 kts 277°
2026-04-21 11:38 -33.53147 150.32824 6034 ft 172 kts 277°
2026-04-21 11:39 -33.52909 150.31434 6027 ft 171 kts 277°
2026-04-21 11:39 -33.52669 150.30040 6040 ft 171 kts 277°
2026-04-21 11:39 -33.52421 150.28629 6033 ft 173 kts 277°
2026-04-21 11:39 -33.52176 150.27213 6034 ft 174 kts 277°
2026-04-21 11:40 -33.51931 150.25801 6042 ft 173 kts 277°
2026-04-21 11:40 -33.51689 150.24377 6034 ft 174 kts 277°
2026-04-21 11:40 -33.51444 150.22953 6044 ft 174 kts 278°
2026-04-21 11:40 -33.51200 150.21552 6040 ft 174 kts 278°
2026-04-21 11:41 -33.50952 150.20134 6042 ft 173 kts 278°
2026-04-21 11:41 -33.50710 150.18718 6037 ft 174 kts 277°
2026-04-21 11:41 -33.50466 150.17289 6043 ft 176 kts 277°
2026-04-21 11:41 -33.50215 150.15843 6028 ft 177 kts 278°
2026-04-21 11:42 -33.49963 150.14429 6020 ft 173 kts 279°
2026-04-21 11:42 -33.49715 150.13033 6041 ft 170 kts 278°
2026-04-21 11:42 -33.49484 150.11635 6044 ft 171 kts 278°
2026-04-21 11:42 -33.49244 150.10238 6039 ft 170 kts 279°
2026-04-21 11:43 -33.48998 150.08841 6032 ft 173 kts 279°
2026-04-21 11:43 -33.48753 150.07450 6034 ft 172 kts 278°
2026-04-21 11:43 -33.48505 150.06032 6048 ft 172 kts 278°
2026-04-21 11:43 -33.48262 150.04639 6048 ft 173 kts 279°
2026-04-21 11:44 -33.48014 150.03219 6034 ft 174 kts 278°
2026-04-21 11:44 -33.47769 150.01796 6040 ft 175 kts 279°
2026-04-21 11:44 -33.47520 150.00365 6045 ft 176 kts 279°
2026-04-21 11:44 -33.47264 149.98922 6037 ft 177 kts 278°
2026-04-21 11:45 -33.47015 149.97478 6045 ft 177 kts 278°
2026-04-21 11:45 -33.46761 149.96031 6045 ft 178 kts 278°
2026-04-21 11:45 -33.46505 149.94574 6040 ft 179 kts 279°
2026-04-21 11:45 -33.46251 149.93124 6032 ft 176 kts 278°
2026-04-21 11:46 -33.45999 149.91696 6039 ft 175 kts 278°
2026-04-21 11:46 -33.45750 149.90277 6045 ft 174 kts 278°
2026-04-21 11:46 -33.45499 149.88855 6044 ft 175 kts 278°
2026-04-21 11:46 -33.45255 149.87449 6042 ft 174 kts 279°
2026-04-21 11:47 -33.45005 149.86033 6043 ft 173 kts 279°
2026-04-21 11:47 -33.44754 149.84624 6046 ft 173 kts 279°
2026-04-21 11:47 -33.44509 149.83235 6043 ft 172 kts 279°
2026-04-21 11:47 -33.44262 149.81834 6042 ft 171 kts 279°
2026-04-21 11:48 -33.44015 149.80430 6041 ft 172 kts 279°
2026-04-21 11:48 -33.43767 149.79027 6042 ft 171 kts 279°
2026-04-21 11:48 -33.43520 149.77631 6036 ft 171 kts 280°
2026-04-21 11:48 -33.43274 149.76242 6044 ft 170 kts 279°
2026-04-21 11:49 -33.43031 149.74865 6041 ft 170 kts 279°
2026-04-21 11:49 -33.42785 149.73477 6045 ft 170 kts 279°
2026-04-21 11:49 -33.42540 149.72091 6045 ft 170 kts 279°
2026-04-21 11:49 -33.42295 149.70706 6046 ft 170 kts 279°
2026-04-21 11:50 -33.42049 149.69322 6049 ft 170 kts 279°
2026-04-21 11:50 -33.41805 149.67951 6053 ft 171 kts 279°
2026-04-21 11:50 -33.41558 149.66560 6049 ft 171 kts 279°
2026-04-21 11:50 -33.41345 149.65164 6041 ft 170 kts 271°
2026-04-21 11:51 -33.41477 149.63784 6037 ft 166 kts 249°
2026-04-21 11:51 -33.41994 149.62576 6043 ft 161 kts 228°
2026-04-21 11:51 -33.42805 149.61679 6039 ft 157 kts 209°
2026-04-21 11:51 -33.43795 149.61173 6047 ft 154 kts 190°
2026-04-21 11:52 -33.44827 149.60924 6048 ft 153 kts 188°
2026-04-21 11:52 -33.45879 149.60697 6042 ft 153 kts 180°
2026-04-21 11:52 -33.46847 149.61096 6052 ft 149 kts 140°
2026-04-21 11:52 -33.47408 149.62126 6052 ft 151 kts 108°
2026-04-21 11:53 -33.47361 149.63368 6058 ft 157 kts 73°
2026-04-21 11:53 -33.46652 149.64380 6058 ft 165 kts 34°
2026-04-21 11:53 -33.45545 149.64788 6060 ft 168 kts 14°
2026-04-21 11:53 -33.44400 149.65030 6059 ft 169 kts 13°
2026-04-21 11:54 -33.43247 149.65276 6059 ft 168 kts 14°
2026-04-21 11:54 -33.42099 149.65538 6060 ft 168 kts 14°
2026-04-21 11:54 -33.40936 149.65715 6050 ft 171 kts 357°
2026-04-21 11:54 -33.39866 149.65118 6052 ft 173 kts 315°
2026-04-21 11:55 -33.39351 149.63862 6055 ft 169 kts 273°
2026-04-21 11:55 -33.39602 149.62558 6056 ft 162 kts 232°
2026-04-21 11:55 -33.40465 149.61794 6063 ft 154 kts 194°
2026-04-21 11:55 -33.41511 149.61574 6063 ft 153 kts 184°
2026-04-21 11:56 -33.42566 149.61410 6064 ft 153 kts 185°
2026-04-21 11:56 -33.43618 149.61201 6064 ft 153 kts 187°
2026-04-21 11:56 -33.44667 149.60964 6065 ft 153 kts 187°
2026-04-21 11:56 -33.45720 149.60746 6061 ft 153 kts 180°
2026-04-21 11:57 -33.46705 149.61066 6058 ft 150 kts 146°
2026-04-21 11:57 -33.47337 149.62035 6057 ft 151 kts 111°
2026-04-21 11:57 -33.47351 149.63292 6058 ft 157 kts 76°
2026-04-21 11:57 -33.46677 149.64334 6059 ft 165 kts 36°
2026-04-21 11:58 -33.45576 149.64771 6072 ft 169 kts 15°
2026-04-21 11:58 -33.44419 149.65025 6069 ft 169 kts 13°
2026-04-21 11:58 -33.43263 149.65274 6069 ft 168 kts 14°
2026-04-21 11:58 -33.42111 149.65536 6068 ft 168 kts 14°
2026-04-21 11:59 -33.40963 149.65718 6060 ft 171 kts 358°
2026-04-21 11:59 -33.39886 149.65148 6062 ft 173 kts 316°
2026-04-21 11:59 -33.39348 149.63902 6062 ft 169 kts 274°
2026-04-21 11:59 -33.39586 149.62580 6063 ft 161 kts 233°
2026-04-21 12:00 -33.40439 149.61803 6069 ft 153 kts 194°
2026-04-21 12:00 -33.41477 149.61579 6076 ft 151 kts 184°
2026-04-21 12:00 -33.42525 149.61419 6075 ft 152 kts 185°
2026-04-21 12:00 -33.43557 149.61214 6075 ft 152 kts 187°
2026-04-21 12:01 -33.44600 149.60980 6073 ft 153 kts 187°
2026-04-21 12:01 -33.45644 149.60752 6070 ft 152 kts 182°
2026-04-21 12:01 -33.46649 149.61024 6066 ft 149 kts 148°
2026-04-21 12:01 -33.47312 149.61958 6066 ft 151 kts 114°
2026-04-21 12:02 -33.47372 149.63210 6067 ft 156 kts 78°
2026-04-21 12:02 -33.45645 149.64754 6073 ft 169 kts 15°
2026-04-21 12:02 -33.44499 149.65009 6068 ft 169 kts 13°
2026-04-21 12:03 -33.43341 149.65257 6070 ft 169 kts 13°
2026-04-21 12:03 -33.42186 149.65519 6070 ft 168 kts 14°
2026-04-21 12:03 -33.41024 149.65722 6062 ft 171 kts
2026-04-21 12:03 -33.39935 149.65205 6061 ft 173 kts 319°
2026-04-21 12:04 -33.39351 149.63983 6064 ft 170 kts 277°
2026-04-21 12:04 -33.39539 149.62645 6063 ft 162 kts 236°
2026-04-21 12:04 -33.40365 149.61821 6069 ft 154 kts 197°
2026-04-21 12:04 -33.41401 149.61579 6075 ft 151 kts 184°
2026-04-21 12:05 -33.42450 149.61424 6072 ft 152 kts 185°
2026-04-21 12:05 -33.43499 149.61225 6074 ft 152 kts 187°
2026-04-21 12:05 -33.44530 149.60996 6074 ft 152 kts 187°
2026-04-21 12:05 -33.45571 149.60762 6071 ft 152 kts 184°
2026-04-21 12:06 -33.46582 149.60978 6068 ft 149 kts 150°
2026-04-21 12:06 -33.47281 149.61871 6069 ft 150 kts 116°
2026-04-21 12:06 -33.47392 149.63112 6070 ft 155 kts 81°
2026-04-21 12:06 -33.46812 149.64218 6070 ft 164 kts 42°
2026-04-21 12:07 -33.45752 149.64724 6075 ft 169 kts 16°
2026-04-21 12:07 -33.44592 149.64988 6068 ft 170 kts 13°
2026-04-21 12:07 -33.43434 149.65236 6069 ft 169 kts 13°
2026-04-21 12:07 -33.42277 149.65498 6069 ft 168 kts 14°
2026-04-21 12:08 -33.41117 149.65723 6061 ft 170 kts
2026-04-21 12:08 -33.40012 149.65280 6057 ft 173 kts 322°
2026-04-21 12:08 -33.39371 149.64101 6061 ft 170 kts 281°
2026-04-21 12:08 -33.39424 149.62719 6063 ft 167 kts 261°
2026-04-21 12:09 -33.39225 149.61336 6068 ft 170 kts 285°
2026-04-21 12:09 -33.38926 149.59970 6064 ft 170 kts 279°
2026-04-21 12:09 -33.38706 149.58580 6064 ft 171 kts 279°
2026-04-21 12:09 -33.38467 149.57184 6062 ft 171 kts 280°
2026-04-21 12:10 -33.38212 149.55791 6063 ft 171 kts 280°
2026-04-21 12:10 -33.37959 149.54419 6065 ft 171 kts 280°
2026-04-21 12:10 -33.37701 149.53023 6065 ft 171 kts 280°
2026-04-21 12:10 -33.37444 149.51631 6063 ft 172 kts 280°
2026-04-21 12:11 -33.37186 149.50231 6063 ft 172 kts 280°
2026-04-21 12:11 -33.36926 149.48828 6060 ft 172 kts 281°
2026-04-21 12:11 -33.36671 149.47447 6061 ft 172 kts 280°
2026-04-21 12:11 -33.36414 149.46054 6058 ft 171 kts 280°
2026-04-21 12:12 -33.36155 149.44657 6057 ft 171 kts 280°
2026-04-21 12:12 -33.35901 149.43282 6050 ft 172 kts 280°
2026-04-21 12:12 -33.35640 149.41872 6054 ft 171 kts 281°
2026-04-21 12:12 -33.35385 149.40501 6057 ft 171 kts 280°
2026-04-21 12:13 -33.35123 149.39107 6058 ft 171 kts 282°
2026-04-21 12:13 -33.34804 149.37730 6055 ft 171 kts 285°
2026-04-21 12:13 -33.34398 149.36390 6048 ft 172 kts 291°
2026-04-21 12:13 -33.33943 149.35081 6048 ft 172 kts 289°
2026-04-21 12:14 -33.33533 149.33730 6048 ft 173 kts 288°
2026-04-21 12:14 -33.33128 149.32374 6041 ft 172 kts 288°
2026-04-21 12:14 -33.32715 149.31026 6044 ft 172 kts 289°
2026-04-21 12:14 -33.32199 149.29741 6052 ft 173 kts 310°
2026-04-21 12:15 -33.31431 149.28659 6053 ft 173 kts 305°
2026-04-21 12:15 -33.30915 149.27370 6054 ft 172 kts 287°
2026-04-21 12:15 -33.30562 149.26003 6043 ft 172 kts 285°
2026-04-21 12:15 -33.30202 149.24643 6050 ft 171 kts 287°
2026-04-21 12:16 -33.29815 149.23296 6049 ft 171 kts 288°
2026-04-21 12:16 -33.29425 149.21944 6050 ft 172 kts 287°
2026-04-21 12:16 -33.29044 149.20609 6052 ft 171 kts 287°
2026-04-21 12:16 -33.28658 149.19260 6049 ft 172 kts 287°
2026-04-21 12:17 -33.28270 149.17901 6045 ft 173 kts 287°
2026-04-21 12:17 -33.27881 149.16542 6044 ft 173 kts 287°
2026-04-21 12:17 -33.27490 149.15180 6043 ft 172 kts 287°
2026-04-21 12:17 -33.27101 149.13823 6046 ft 172 kts 287°
2026-04-21 12:18 -33.26718 149.12483 6046 ft 173 kts 287°
2026-04-21 12:18 -33.26327 149.11121 6045 ft 173 kts 287°
2026-04-21 12:18 -33.25936 149.09761 6042 ft 173 kts 287°
2026-04-21 12:18 -33.25546 149.08403 6042 ft 172 kts 287°
2026-04-21 12:19 -33.25156 149.07051 6048 ft 172 kts 287°
2026-04-21 12:19 -33.24769 149.05702 6046 ft 171 kts 287°
2026-04-21 12:19 -33.24383 149.04356 6047 ft 171 kts 287°
2026-04-21 12:19 -33.23993 149.03004 6030 ft 172 kts 287°
2026-04-21 12:20 -33.23605 149.01656 6029 ft 171 kts 287°
2026-04-21 12:20 -33.23217 149.00311 6031 ft 171 kts 287°
2026-04-21 12:20 -33.22844 148.99013 5923 ft 170 kts 288°
2026-04-21 12:20 -33.22468 148.97713 6085 ft 163 kts 286°
2026-04-21 12:21 -33.22104 148.96456 6206 ft 158 kts 285°
2026-04-21 12:21 -33.21748 148.95219 6331 ft 156 kts 284°
2026-04-21 12:21 -33.21394 148.93985 6376 ft 160 kts 285°
2026-04-21 12:21 -33.21025 148.92707 6371 ft 163 kts 285°
2026-04-21 12:22 -33.20651 148.91417 6377 ft 166 kts 284°
2026-04-21 12:22 -33.20277 148.90119 6381 ft 169 kts 284°
2026-04-21 12:22 -33.19889 148.88777 6378 ft 172 kts 285°
2026-04-21 12:22 -33.19498 148.87425 6379 ft 173 kts 285°
2026-04-21 12:23 -33.19104 148.86067 6378 ft 173 kts 285°
2026-04-21 12:23 -33.18709 148.84700 6379 ft 174 kts 285°
2026-04-21 12:23 -33.18313 148.83336 6378 ft 174 kts 286°
2026-04-21 12:23 -33.17919 148.81968 6377 ft 173 kts 285°
2026-04-21 12:24 -33.17523 148.80612 6376 ft 173 kts 286°
2026-04-21 12:24 -33.17128 148.79256 6368 ft 173 kts 286°
2026-04-21 12:24 -33.16735 148.77904 6370 ft 172 kts 285°
2026-04-21 12:24 -33.16346 148.76562 6374 ft 171 kts 286°
2026-04-21 12:25 -33.15958 148.75226 6369 ft 170 kts 286°
2026-04-21 12:25 -33.15576 148.73912 6371 ft 170 kts 286°
2026-04-21 12:25 -33.15189 148.72583 6372 ft 169 kts 285°
2026-04-21 12:25 -33.14804 148.71255 6369 ft 169 kts 285°
2026-04-21 12:26 -33.14417 148.69927 6368 ft 170 kts 285°
2026-04-21 12:26 -33.14030 148.68598 6370 ft 170 kts 285°
2026-04-21 12:26 -33.13644 148.67270 6371 ft 169 kts 285°
2026-04-21 12:26 -33.13256 148.65938 6374 ft 171 kts 285°
2026-04-21 12:27 -33.12864 148.64599 6370 ft 171 kts 285°
2026-04-21 12:27 -33.12473 148.63258 6371 ft 171 kts 285°
2026-04-21 12:27 -33.12083 148.61915 6368 ft 171 kts 285°
2026-04-21 12:27 -33.11825 148.61028 6373 ft 171 kts 285°
2026-04-21 12:28 -33.11432 148.59691 6371 ft 171 kts 285°
2026-04-21 12:28 -33.11040 148.58351 6365 ft 171 kts 285°
2026-04-21 12:28 -33.10649 148.57011 6372 ft 171 kts 285°
2026-04-21 12:28 -33.10257 148.55668 6370 ft 171 kts 285°
2026-04-21 12:29 -33.09863 148.54326 6370 ft 172 kts 286°
2026-04-21 12:29 -33.09342 148.52546 6372 ft 172 kts 286°
2026-04-21 12:29 -33.09076 148.51634 6371 ft 172 kts 285°
2026-04-21 12:29 -33.08688 148.50304 6370 ft 172 kts 286°
2026-04-21 12:30 -33.08296 148.48963 6366 ft 171 kts 286°
2026-04-21 12:30 -33.07900 148.47625 6363 ft 171 kts 286°
2026-04-21 12:30 -33.07506 148.46286 6364 ft 171 kts 285°
2026-04-21 12:30 -33.07112 148.44943 6364 ft 172 kts 286°
2026-04-21 12:31 -33.06715 148.43591 6365 ft 173 kts 286°
2026-04-21 12:31 -33.06318 148.42238 6366 ft 173 kts 286°
2026-04-21 12:31 -33.05920 148.40881 6365 ft 173 kts 286°
2026-04-21 12:31 -33.05528 148.39542 6367 ft 173 kts 286°
2026-04-21 12:32 -33.05128 148.38182 6363 ft 173 kts 286°
2026-04-21 12:32 -33.04730 148.36829 6364 ft 173 kts 286°
2026-04-21 12:32 -33.04331 148.35477 6360 ft 172 kts 286°
2026-04-21 12:32 -33.03934 148.34132 6362 ft 172 kts 286°
2026-04-21 12:33 -33.03540 148.32796 6364 ft 173 kts 286°
2026-04-21 12:33 -33.03141 148.31445 6358 ft 172 kts 286°
2026-04-21 12:33 -33.02743 148.30094 6289 ft 175 kts 286°
2026-04-21 12:33 -33.02334 148.28707 6028 ft 178 kts 286°
2026-04-21 12:34 -33.01921 148.27311 5782 ft 179 kts 287°
2026-04-21 12:34 -33.01504 148.25908 5534 ft 180 kts 288°
2026-04-21 12:34 -33.00816 148.24693 5279 ft 182 kts 322°
2026-04-21 12:34 -32.99649 148.24186 5026 ft 178 kts
2026-04-21 12:35 -32.98512 148.24612 4772 ft 170 kts 40°
2026-04-21 12:35 -32.97884 148.25732 4522 ft 162 kts 79°
2026-04-21 12:35 -32.97964 148.27038 4282 ft 160 kts 109°
2026-04-21 12:35 -32.98426 148.28234 4024 ft 160 kts 127°
2026-04-21 12:36 -32.99344 148.28962 3787 ft 162 kts 162°
2026-04-21 12:36 -33.00461 148.28951 3535 ft 167 kts 194°
2026-04-21 12:36 -33.01396 148.28132 3282 ft 172 kts 233°
2026-04-21 12:36 -33.01721 148.26777 3043 ft 174 kts 273°
2026-04-21 12:37 -33.01385 148.25396 2800 ft 175 kts 299°
2026-04-21 12:37 -33.00527 148.24459 2544 ft 165 kts 340°
2026-04-21 12:37 -32.99424 148.24337 2308 ft 159 kts 15°
2026-04-21 12:37 -32.98502 148.24988 2058 ft 154 kts 50°
2026-04-21 12:38 -32.98078 148.26093 1996 ft 140 kts 83°
2026-04-21 12:38 -32.98181 148.27150 2002 ft 125 kts 108°
2026-04-21 12:38 -32.98511 148.28051 1994 ft 114 kts 123°
2026-04-21 12:38 -32.99122 148.28703 2008 ft 128 kts 150°
2026-04-21 12:39 -33.00035 148.28949 2004 ft 145 kts 180°
2026-04-21 12:39 -33.01001 148.28529 2006 ft 154 kts 216°
2026-04-21 12:39 -33.01617 148.27473 2003 ft 160 kts 252°
2026-04-21 12:39 -33.01591 148.26162 2007 ft 160 kts 287°
2026-04-21 12:40 -33.01114 148.25004 2007 ft 157 kts 312°
2026-04-21 12:40 -33.00185 148.24357 2003 ft 157 kts 349°
2026-04-21 12:40 -32.99114 148.24482 2005 ft 156 kts 25°
2026-04-21 12:40 -32.98314 148.25317 2004 ft 155 kts 60°
2026-04-21 12:41 -32.98069 148.26530 2004 ft 151 kts 94°
2026-04-21 12:41 -32.98343 148.27707 2000 ft 149 kts 113°
2026-04-21 12:41 -32.99010 148.28627 2007 ft 150 kts 147°
2026-04-21 12:41 -33.00019 148.28948 2002 ft 156 kts 181°
2026-04-21 12:42 -33.01028 148.28498 2007 ft 159 kts 216°
2026-04-21 12:42 -33.01632 148.27396 2004 ft 163 kts 255°
2026-04-21 12:42 -33.01568 148.26075 2009 ft 160 kts 287°
2026-04-21 12:42 -33.01054 148.24927 2007 ft 157 kts 316°
2026-04-21 12:43 -33.00101 148.24339 2005 ft 157 kts 352°
2026-04-21 12:43 -32.99040 148.24525 2004 ft 156 kts 28°
2026-04-21 12:43 -32.98274 148.25405 2002 ft 155 kts 63°
2026-04-21 12:43 -32.98077 148.26627 2003 ft 151 kts 96°
2026-04-21 12:44 -32.98385 148.27812 1997 ft 148 kts 116°
2026-04-21 12:44 -32.99091 148.28685 2004 ft 150 kts 148°
2026-04-21 12:44 -33.00097 148.28941 2004 ft 155 kts 184°
2026-04-21 12:44 -33.01045 148.28470 2350 ft 145 kts 217°
2026-04-21 12:45 -33.01596 148.27517 2728 ft 138 kts 251°
2026-04-21 12:45 -33.01954 148.26492 3095 ft 131 kts 242°
2026-04-21 12:45 -33.02340 148.25521 3465 ft 128 kts 243°
2026-04-21 12:45 -33.02728 148.24561 3756 ft 132 kts 241°
2026-04-21 12:46 -33.03127 148.23550 4002 ft 136 kts 243°
2026-04-21 12:46 -33.03542 148.22517 4258 ft 140 kts 241°
2026-04-21 12:46 -33.03948 148.21453 4514 ft 141 kts 242°
2026-04-21 12:46 -33.04350 148.20368 4634 ft 152 kts 242°
2026-04-21 12:47 -33.04817 148.19137 4443 ft 173 kts 242°
2026-04-21 12:47 -33.05546 148.17969 4202 ft 181 kts 213°
2026-04-21 12:47 -33.06711 148.17431 4003 ft 178 kts 190°
2026-04-21 12:47 -33.07860 148.17165 3781 ft 156 kts 188°
2026-04-21 12:48 -33.08866 148.16959 3524 ft 141 kts 180°
2026-04-21 12:48 -33.09721 148.17324 3274 ft 128 kts 135°
2026-04-21 12:48 -33.10109 148.18255 2859 ft 128 kts 105°
2026-04-21 12:48 -33.10347 148.19219 2357 ft 115 kts 114°
2026-04-21 12:49 -33.10706 148.20022 1931 ft 102 kts 121°
2026-04-21 12:49 -33.11053 148.20687 1658 ft 88 kts 125°
2026-04-21 12:49 -33.11428 148.21289 1514 ft 93 kts 127°
2026-04-21 12:49 -33.11809 148.21920 1381 ft 94 kts 126°
2026-04-21 12:50 -33.12188 148.22563 1235 ft 96 kts 125°
2026-04-21 12:50 -33.12571 148.23203 1072 ft 95 kts 125°
2026-04-21 12:50 -33.12903 148.23767 1059 ft 84 kts 125°
2026-04-21 12:50 -33.13264 148.24382 1282 ft 92 kts 125°
2026-04-21 12:51 -33.13599 148.25012 1618 ft 89 kts 111°
2026-04-21 12:51 -33.13410 148.25683 1857 ft 97 kts 37°
2026-04-21 12:51 -33.12781 148.26087 2064 ft 112 kts 22°
2026-04-21 12:51 -33.12041 148.25817 2147 ft 126 kts 305°
2026-04-21 12:52 -33.11602 148.24921 2282 ft 126 kts 301°
2026-04-21 12:52 -33.11156 148.24018 2359 ft 123 kts 302°
2026-04-21 12:52 -33.10714 148.23149 2300 ft 121 kts 300°
2026-04-21 12:52 -33.10303 148.22312 2300 ft 111 kts 299°
2026-04-21 12:53 -33.10281 148.21431 2206 ft 110 kts 235°
2026-04-21 12:53 -33.10888 148.20894 2022 ft 112 kts 206°
2026-04-21 12:53 -33.11571 148.21049 1764 ft 110 kts 122°
2026-04-21 12:53 -33.11874 148.21885 1558 ft 104 kts 112°
2026-04-21 12:54 -33.12210 148.22580 1224 ft 89 kts 126°
2026-04-21 12:54 -33.12557 148.23177 1063 ft 87 kts 125°
2026-04-21 12:54 -33.12868 148.23707 1056 ft 83 kts 125°
2026-04-21 12:54 -33.13221 148.24314 1286 ft 90 kts 124°
2026-04-21 12:55 -33.13597 148.24949 1542 ft 94 kts 126°
2026-04-21 12:55 -33.13727 148.25687 1845 ft 96 kts 75°
2026-04-21 12:55 -33.13244 148.26257 2086 ft 106 kts 29°
2026-04-21 12:55 -33.12545 148.26681 2108 ft 118 kts 24°
2026-04-21 12:56 -33.11728 148.26622 2115 ft 126 kts 334°
2026-04-21 12:56 -33.11167 148.25828 2151 ft 125 kts 301°
2026-04-21 12:56 -33.10739 148.24929 2163 ft 123 kts 299°
2026-04-21 12:56 -33.10356 148.24064 2165 ft 115 kts 298°
2026-04-21 12:57 -33.09987 148.23234 2130 ft 114 kts 299°
2026-04-21 12:57 -33.09959 148.22328 1990 ft 111 kts 239°
2026-04-21 12:57 -33.10559 148.21786 1794 ft 105 kts 209°
2026-04-21 12:57 -33.11179 148.21373 1662 ft 102 kts 191°
2026-04-21 12:58 -33.11737 148.21723 1471 ft 98 kts 118°
2026-04-21 12:58 -33.12101 148.22403 1265 ft 96 kts 125°
2026-04-21 12:58 -33.12478 148.23043 1077 ft 90 kts 126°
2026-04-21 12:58 -33.12791 148.23575 1052 ft 74 kts 124°
2026-04-21 12:59 -33.13144 148.24179 1162 ft 94 kts 125°
2026-04-21 12:59 -33.13528 148.24828 1450 ft 95 kts 124°
2026-04-21 12:59 -33.13792 148.25544 1731 ft 98 kts 89°
2026-04-21 12:59 -33.13397 148.26177 1975 ft 107 kts 28°
2026-04-21 13:00 -33.12707 148.26646 2050 ft 120 kts 33°
2026-04-21 13:00 -33.11894 148.26942 2070 ft 129 kts 356°
2026-04-21 13:00 -33.11168 148.26365 2109 ft 130 kts 303°
2026-04-21 13:00 -33.10726 148.25413 2115 ft 132 kts 296°
2026-04-21 13:01 -33.10525 148.24341 2130 ft 130 kts 283°
2026-04-21 13:01 -33.10126 148.23426 2071 ft 123 kts 300°
2026-04-21 13:01 -33.09771 148.22552 1961 ft 110 kts 276°
2026-04-21 13:01 -33.10094 148.21825 1786 ft 102 kts 207°
2026-04-21 13:02 -33.10683 148.21378 1623 ft 100 kts 211°
2026-04-21 13:02 -33.11316 148.21267 1468 ft 95 kts 150°
2026-04-21 13:02 -33.12133 148.22458 1223 ft 92 kts 124°
2026-04-21 13:03 -33.12501 148.23077 1079 ft 91 kts 125°
2026-04-21 13:03 -33.12815 148.23615 1053 ft 72 kts 124°
2026-04-21 13:03 -33.13158 148.24203 1181 ft 91 kts 125°
2026-04-21 13:03 -33.13528 148.24835 1458 ft 95 kts 124°
2026-04-21 13:04 -33.13737 148.25563 1720 ft 99 kts 76°
2026-04-21 13:04 -33.13221 148.26132 1948 ft 106 kts 36°
2026-04-21 13:04 -33.12574 148.26634 2080 ft 114 kts 34°
2026-04-21 13:04 -33.11809 148.26963 2124 ft 126 kts 351°
2026-04-21 13:05 -33.11194 148.26193 2092 ft 135 kts 296°
2026-04-21 13:05 -33.10786 148.25205 2115 ft 128 kts 296°
2026-04-21 13:05 -33.10408 148.24292 2036 ft 125 kts 297°
2026-04-21 13:05 -33.09999 148.23389 1937 ft 121 kts 301°
2026-04-21 13:06 -33.09715 148.22501 1829 ft 113 kts 262°
2026-04-21 13:06 -33.10168 148.21826 1719 ft 105 kts 212°
2026-04-21 13:06 -33.10757 148.21298 1643 ft 103 kts 216°
2026-04-21 13:06 -33.11404 148.21229 1540 ft 98 kts 139°
2026-04-21 13:07 -33.11812 148.21902 1387 ft 102 kts 126°
2026-04-21 13:07 -33.12220 148.22605 1201 ft 105 kts 124°
2026-04-21 13:07 -33.12622 148.23287 1052 ft 87 kts 126°
2026-04-21 13:07 -33.12899 148.23757 1058 ft 70 kts 125°
2026-04-21 13:08 -33.13233 148.24325 1173 ft 94 kts 127°
2026-04-21 13:08 -33.13655 148.25006 1377 ft 110 kts 126°
2026-04-21 13:08 -33.14115 148.25771 1621 ft 116 kts 126°
2026-04-21 13:08 -33.14587 148.26562 1883 ft 119 kts 126°
2026-04-21 13:09 -33.15078 148.27394 2134 ft 124 kts 125°
2026-04-21 13:09 -33.15581 148.28242 2392 ft 127 kts 125°
2026-04-21 13:09 -33.16104 148.29110 2646 ft 131 kts 126°
2026-04-21 13:09 -33.16640 148.30003 2896 ft 132 kts 125°
2026-04-21 13:10 -33.17176 148.30891 3155 ft 133 kts 128°
2026-04-21 13:10 -33.17960 148.31475 3405 ft 135 kts 159°
2026-04-21 13:10 -33.18841 148.31858 3660 ft 137 kts 158°
2026-04-21 13:10 -33.19775 148.32114 3904 ft 139 kts 170°
2026-04-21 13:11 -33.20737 148.32251 4157 ft 140 kts 172°
2026-04-21 13:11 -33.21704 148.32378 4406 ft 140 kts 172°
2026-04-21 13:11 -33.22666 148.32504 4654 ft 138 kts 171°
2026-04-21 13:11 -33.23619 148.32621 4915 ft 138 kts 171°
2026-04-21 13:12 -33.24569 148.32731 5125 ft 135 kts 171°
2026-04-21 13:12 -33.25508 148.32837 5268 ft 136 kts 171°
2026-04-21 13:12 -33.26377 148.33228 5431 ft 135 kts 150°
2026-04-21 13:12 -33.27206 148.33781 5571 ft 137 kts 149°
2026-04-21 13:13 -33.28035 148.34311 5721 ft 137 kts 152°
2026-04-21 13:13 -33.28895 148.34810 5872 ft 138 kts 154°
2026-04-21 13:13 -33.29771 148.35298 6022 ft 139 kts 154°
2026-04-21 13:13 -33.30650 148.35778 6171 ft 138 kts 155°
2026-04-21 13:14 -33.31525 148.36256 6323 ft 138 kts 155°
2026-04-21 13:14 -33.32400 148.36733 6473 ft 137 kts 155°
2026-04-21 13:14 -33.33264 148.37204 6629 ft 136 kts 156°
2026-04-21 13:14 -33.34129 148.37676 6781 ft 136 kts 156°
2026-04-21 13:15 -33.34983 148.38141 6920 ft 136 kts 156°
2026-04-21 13:15 -33.35872 148.38527 7063 ft 136 kts 162°
2026-04-21 13:15 -33.36775 148.38886 7208 ft 137 kts 161°
2026-04-21 13:15 -33.37683 148.39254 7357 ft 138 kts 161°
2026-04-21 13:16 -33.38590 148.39628 7493 ft 139 kts 161°
2026-04-21 13:16 -33.39533 148.40018 7497 ft 147 kts 161°
2026-04-21 13:16 -33.40506 148.40419 7497 ft 147 kts 161°
2026-04-21 13:16 -33.41471 148.40820 7496 ft 146 kts 161°
2026-04-21 13:17 -33.42418 148.41215 7497 ft 145 kts 161°
2026-04-21 13:17 -33.43376 148.41613 7488 ft 145 kts 161°
2026-04-21 13:17 -33.44330 148.42008 7494 ft 144 kts 161°
2026-04-21 13:17 -33.45268 148.42398 7490 ft 144 kts 161°
2026-04-21 13:18 -33.46205 148.42848 7496 ft 146 kts 155°
2026-04-21 13:18 -33.47109 148.43393 7489 ft 144 kts 154°
2026-04-21 13:18 -33.47994 148.43925 7496 ft 144 kts 155°
2026-04-21 13:18 -33.48895 148.44456 7493 ft 144 kts 155°
2026-04-21 13:19 -33.49796 148.44983 7495 ft 144 kts 155°
2026-04-21 13:19 -33.50696 148.45508 7497 ft 144 kts 155°
2026-04-21 13:19 -33.51293 148.45856 7495 ft 144 kts 155°
2026-04-21 13:19 -33.52193 148.46382 7495 ft 143 kts 155°
2026-04-21 13:20 -33.53085 148.46903 7496 ft 142 kts 155°
2026-04-21 13:20 -33.53977 148.47424 7492 ft 143 kts 155°
2026-04-21 13:20 -33.54870 148.47946 7503 ft 143 kts 154°
2026-04-21 13:20 -33.55765 148.48469 7501 ft 143 kts 154°
2026-04-21 13:21 -33.56660 148.48992 7442 ft 145 kts 154°
2026-04-21 13:21 -33.57573 148.49526 7297 ft 146 kts 154°
2026-04-21 13:21 -33.58488 148.50061 7156 ft 146 kts 154°
2026-04-21 13:21 -33.59401 148.50595 7007 ft 145 kts 154°
2026-04-21 13:22 -33.60298 148.51121 6866 ft 145 kts 154°
2026-04-21 13:22 -33.61204 148.51650 6721 ft 145 kts 154°
2026-04-21 13:22 -33.62112 148.52183 6568 ft 145 kts 154°
2026-04-21 13:22 -33.63024 148.52718 6417 ft 146 kts 153°
2026-04-21 13:23 -33.63940 148.53254 6257 ft 146 kts 154°
2026-04-21 13:23 -33.64851 148.53788 6108 ft 145 kts 153°
2026-04-21 13:23 -33.65762 148.54321 5953 ft 146 kts 153°
2026-04-21 13:23 -33.66663 148.54849 5804 ft 145 kts 153°
2026-04-21 13:24 -33.67567 148.55379 5657 ft 144 kts 153°
2026-04-21 13:24 -33.68467 148.55907 5510 ft 143 kts 152°
2026-04-21 13:24 -33.69361 148.56433 5364 ft 143 kts 152°
2026-04-21 13:24 -33.70254 148.56956 5211 ft 141 kts 152°
2026-04-21 13:25 -33.71133 148.57470 5059 ft 140 kts 153°
2026-04-21 13:25 -33.72051 148.57828 4911 ft 140 kts 161°
2026-04-21 13:25 -33.72998 148.58137 4754 ft 141 kts 162°
2026-04-21 13:25 -33.73952 148.58453 4602 ft 142 kts 161°
2026-04-21 13:26 -33.74904 148.58759 4451 ft 141 kts 162°
2026-04-21 13:26 -33.75859 148.59061 4297 ft 142 kts 162°
2026-04-21 13:26 -33.76823 148.59376 4148 ft 144 kts 161°
2026-04-21 13:26 -33.77779 148.59682 3992 ft 143 kts 161°
2026-04-21 13:27 -33.78739 148.59983 3846 ft 142 kts 161°
2026-04-21 13:27 -33.79709 148.60284 3704 ft 145 kts 162°
2026-04-21 13:27 -33.80693 148.60587 3559 ft 146 kts 162°
2026-04-21 13:27 -33.81682 148.60899 3386 ft 147 kts 162°
2026-04-21 13:28 -33.82678 148.61220 3115 ft 147 kts 162°
2026-04-21 13:28 -33.83666 148.61544 2890 ft 145 kts 162°
2026-04-21 13:28 -33.84643 148.61854 2618 ft 149 kts 162°
2026-04-21 13:28 -33.85637 148.62169 2355 ft 145 kts 162°
2026-04-21 13:29 -33.86525 148.62443 2156 ft 118 kts 162°
2026-04-21 13:29 -33.87272 148.62674 1987 ft 103 kts 160°
2026-04-21 13:29 -33.87942 148.62885 1863 ft 97 kts 162°
2026-04-21 13:29 -33.88452 148.63338 1794 ft 94 kts 116°
2026-04-21 13:30 -33.88487 148.64138 1754 ft 102 kts 75°
2026-04-21 13:30 -33.88220 148.64958 1666 ft 109 kts 73°
2026-04-21 13:30 -33.87888 148.65793 1527 ft 114 kts 57°
2026-04-21 13:30 -33.87162 148.65847 1472 ft 124 kts 337°
2026-04-21 13:31 -33.86423 148.65487 1315 ft 108 kts 346°
2026-04-21 13:31 -33.85742 148.65216 1114 ft 96 kts 347°
2026-04-21 13:31 -33.85161 148.64985 975 ft 81 kts 348°
2026-04-21 13:31 -33.84771 148.64835 973 ft 33 kts 341°
2026-04-21 13:32 -33.84677 148.64855 974 ft 12 kts 74°
2026-04-21 13:32 -33.84651 148.64943 969 ft 10 kts 70°
2026-04-21 13:32 -33.84629 148.65019 971 ft 9 kts 73°
2026-04-21 13:32 -33.84612 148.65080 971 ft 6 kts 88°
2026-04-21 13:33 -33.84631 148.65072 970 ft 3 kts 243°
2026-04-21 13:33 -33.84633 148.65069 969 ft 0 kts 227°
2026-04-21 13:36 -33.84627 148.65026 971 ft 11 kts 252°
2026-04-21 13:36 -33.84665 148.64907 967 ft 18 kts 253°
2026-04-21 13:36 -33.84686 148.64799 975 ft 11 kts 321°
2026-04-21 13:37 -33.84582 148.64759 972 ft 45 kts 340°
2026-04-21 13:37 -33.84113 148.64569 976 ft 93 kts 344°
2026-04-21 13:37 -33.83478 148.64313 1232 ft 98 kts 346°
2026-04-21 13:37 -33.82818 148.63981 1460 ft 106 kts 323°
2026-04-21 13:38 -33.82418 148.63204 1647 ft 117 kts 279°
2026-04-21 13:38 -33.82511 148.62225 1839 ft 123 kts 240°
2026-04-21 13:38 -33.83088 148.61454 2033 ft 128 kts 207°
2026-04-21 13:38 -33.83951 148.61185 2216 ft 132 kts 174°
2026-04-21 13:39 -33.84841 148.61451 2395 ft 134 kts 158°
2026-04-21 13:39 -33.85726 148.61830 2568 ft 136 kts 158°
2026-04-21 13:39 -33.86625 148.62206 2755 ft 138 kts 158°
2026-04-21 13:39 -33.87542 148.62582 2932 ft 140 kts 159°
2026-04-21 13:40 -33.88469 148.62956 3100 ft 144 kts 158°
2026-04-21 13:40 -33.89421 148.63338 3270 ft 144 kts 156°
2026-04-21 13:40 -33.90359 148.63717 3452 ft 142 kts 157°
2026-04-21 13:40 -33.91298 148.64096 3629 ft 143 kts 159°
2026-04-21 13:41 -33.92244 148.64477 3798 ft 143 kts 158°
2026-04-21 13:41 -33.93181 148.64854 3975 ft 141 kts 158°
2026-04-21 13:41 -33.94108 148.65227 4103 ft 140 kts 158°
2026-04-21 13:41 -33.95012 148.65592 4227 ft 138 kts 158°
2026-04-21 13:42 -33.95921 148.65958 4346 ft 137 kts 158°
2026-04-21 13:42 -33.96825 148.66321 4482 ft 138 kts 158°
2026-04-21 13:42 -33.97728 148.66686 4599 ft 136 kts 158°
2026-04-21 13:42 -33.98626 148.67050 4738 ft 136 kts 158°
2026-04-21 13:43 -33.99529 148.67413 4865 ft 137 kts 159°
2026-04-21 13:43 -34.00433 148.67777 4997 ft 136 kts 158°
2026-04-21 13:43 -34.01323 148.68136 5120 ft 136 kts 158°
2026-04-21 13:43 -34.02215 148.68497 5245 ft 135 kts 158°
2026-04-21 13:44 -34.03104 148.68851 5369 ft 134 kts 159°
2026-04-21 13:44 -34.03992 148.69214 5489 ft 135 kts 159°
2026-04-21 13:44 -34.04867 148.69570 5613 ft 134 kts 160°
2026-04-21 13:44 -34.05756 148.69929 5739 ft 135 kts 161°
2026-04-21 13:45 -34.06655 148.70291 5864 ft 137 kts 160°
2026-04-21 13:45 -34.07565 148.70658 5989 ft 138 kts 160°
2026-04-21 13:45 -34.08475 148.71026 6121 ft 138 kts 161°
2026-04-21 13:45 -34.09384 148.71393 6258 ft 140 kts 160°
2026-04-21 13:46 -34.10309 148.71767 6378 ft 140 kts 161°
2026-04-21 13:46 -34.11228 148.72139 6500 ft 139 kts 161°
2026-04-21 13:46 -34.12148 148.72511 6630 ft 139 kts 161°
2026-04-21 13:46 -34.13067 148.72883 6760 ft 140 kts 161°
2026-04-21 13:47 -34.13991 148.73257 6880 ft 140 kts 161°
2026-04-21 13:47 -34.14910 148.73629 7002 ft 139 kts 161°
2026-04-21 13:47 -34.15823 148.73999 7118 ft 140 kts 161°
2026-04-21 13:47 -34.16749 148.74375 7240 ft 140 kts 161°
2026-04-21 13:48 -34.17673 148.74749 7360 ft 139 kts 161°
2026-04-21 13:48 -34.18594 148.75122 7483 ft 140 kts 161°
2026-04-21 13:48 -34.19530 148.75502 7498 ft 146 kts 162°
2026-04-21 13:48 -34.20505 148.75895 7500 ft 149 kts 161°
2026-04-21 13:49 -34.21503 148.76301 7504 ft 153 kts 161°
2026-04-21 13:49 -34.22522 148.76715 7503 ft 155 kts 161°
2026-04-21 13:49 -34.23550 148.77132 7500 ft 156 kts 160°
2026-04-21 13:49 -34.24582 148.77550 7503 ft 156 kts 161°
2026-04-21 13:50 -34.25606 148.77965 7502 ft 158 kts 161°
2026-04-21 13:50 -34.26644 148.78390 7506 ft 157 kts 161°
2026-04-21 13:50 -34.27682 148.78811 7504 ft 157 kts 161°
2026-04-21 13:50 -34.28723 148.79234 7507 ft 158 kts 161°
2026-04-21 13:51 -34.29766 148.79658 7504 ft 158 kts 161°
2026-04-21 13:51 -34.30813 148.80083 7505 ft 159 kts 161°
2026-04-21 13:51 -34.31859 148.80508 7501 ft 158 kts 161°
2026-04-21 13:51 -34.32897 148.80929 7494 ft 156 kts 161°
2026-04-21 13:52 -34.33920 148.81347 7506 ft 155 kts 161°
2026-04-21 13:52 -34.34932 148.81758 7507 ft 156 kts 161°
2026-04-21 13:52 -34.35968 148.82178 7503 ft 157 kts 161°
2026-04-21 13:52 -34.37001 148.82598 7506 ft 156 kts 161°
2026-04-21 13:53 -34.38034 148.83020 7503 ft 156 kts 161°
2026-04-21 13:53 -34.39066 148.83441 7505 ft 156 kts 161°
2026-04-21 13:53 -34.40097 148.83861 7506 ft 156 kts 161°
2026-04-21 13:53 -34.41128 148.84281 7504 ft 157 kts 161°
2026-04-21 13:54 -34.42162 148.84703 7508 ft 156 kts 161°
2026-04-21 13:54 -34.43183 148.85119 7504 ft 157 kts 161°
2026-04-21 13:54 -34.44219 148.85542 7503 ft 157 kts 161°
2026-04-21 13:54 -34.45262 148.85968 7503 ft 158 kts 161°
2026-04-21 13:55 -34.46305 148.86394 7500 ft 157 kts 161°
2026-04-21 13:55 -34.47343 148.86817 7503 ft 157 kts 161°
2026-04-21 13:55 -34.48368 148.87235 7504 ft 157 kts 161°
2026-04-21 13:55 -34.49405 148.87659 7498 ft 157 kts 161°
2026-04-21 13:56 -34.50440 148.88081 7506 ft 157 kts 161°
2026-04-21 13:56 -34.51479 148.88506 7505 ft 157 kts 161°
2026-04-21 13:56 -34.52514 148.88929 7506 ft 157 kts 161°
2026-04-21 13:56 -34.53540 148.89348 7507 ft 157 kts 161°
2026-04-21 13:57 -34.54579 148.89773 7502 ft 157 kts 161°
2026-04-21 13:57 -34.55611 148.90197 7503 ft 156 kts 161°
2026-04-21 13:57 -34.56642 148.90618 7507 ft 156 kts 161°
2026-04-21 13:57 -34.57679 148.91041 7505 ft 157 kts 161°
2026-04-21 13:58 -34.58704 148.91460 7503 ft 157 kts 160°
2026-04-21 13:58 -34.59742 148.91887 7506 ft 157 kts 161°
2026-04-21 13:58 -34.60782 148.92314 7508 ft 158 kts 161°
2026-04-21 13:58 -34.61828 148.92741 7513 ft 158 kts 161°
2026-04-21 13:59 -34.62870 148.93170 7512 ft 158 kts 161°
2026-04-21 13:59 -34.63908 148.93594 7511 ft 157 kts 161°
2026-04-21 13:59 -34.64947 148.94019 7508 ft 157 kts 162°
2026-04-21 13:59 -34.65984 148.94444 7510 ft 157 kts 161°
2026-04-21 14:00 -34.67023 148.94872 7509 ft 157 kts 161°
2026-04-21 14:00 -34.68045 148.95291 7508 ft 157 kts 162°
2026-04-21 14:00 -34.69082 148.95717 7509 ft 157 kts 161°
2026-04-21 14:00 -34.70117 148.96143 7516 ft 156 kts 162°
2026-04-21 14:01 -34.71152 148.96568 7508 ft 157 kts 161°
2026-04-21 14:01 -34.72180 148.96990 7511 ft 156 kts 162°
2026-04-21 14:01 -34.73211 148.97411 7513 ft 157 kts 161°
2026-04-21 14:01 -34.74241 148.97834 7504 ft 155 kts 161°
2026-04-21 14:02 -34.74913 148.98111 7507 ft 154 kts 161°
2026-04-21 14:02 -34.76253 148.98664 7513 ft 153 kts 161°
2026-04-21 14:02 -34.77266 148.99080 7515 ft 155 kts 161°
2026-04-21 14:03 -34.79305 148.99918 7514 ft 155 kts 161°
2026-04-21 14:03 -34.80334 149.00342 7515 ft 157 kts 161°
2026-04-21 14:03 -34.81365 149.00764 7512 ft 156 kts 163°
2026-04-21 14:03 -34.82441 149.00972 7491 ft 159 kts 173°
2026-04-21 14:04 -34.83552 149.01101 7396 ft 162 kts 173°
2026-04-21 14:04 -34.84671 149.01254 7297 ft 164 kts 172°
2026-04-21 14:04 -34.85812 149.01425 7203 ft 166 kts 172°
2026-04-21 14:04 -34.86965 149.01604 7103 ft 167 kts 172°
2026-04-21 14:05 -34.88116 149.01783 7005 ft 166 kts 171°
2026-04-21 14:05 -34.89261 149.01959 6909 ft 165 kts 171°
2026-04-21 14:05 -34.90408 149.02134 6816 ft 166 kts 172°
2026-04-21 14:05 -34.91560 149.02311 6710 ft 166 kts 171°
2026-04-21 14:06 -34.92688 149.02479 6615 ft 165 kts 171°
2026-04-21 14:06 -34.93833 149.02659 6511 ft 166 kts 171°
2026-04-21 14:06 -34.94984 149.02840 6406 ft 167 kts 171°
2026-04-21 14:06 -34.96136 149.03017 6304 ft 166 kts 171°
2026-04-21 14:07 -34.97285 149.03197 6200 ft 167 kts 171°
2026-04-21 14:07 -34.98436 149.03372 6103 ft 166 kts 171°
2026-04-21 14:07 -34.99577 149.03544 6008 ft 164 kts 171°
2026-04-21 14:07 -35.00687 149.03715 6010 ft 158 kts 170°
2026-04-21 14:08 -35.01758 149.03882 6011 ft 155 kts 171°
2026-04-21 14:08 -35.02822 149.04047 6012 ft 153 kts 171°
2026-04-21 14:08 -35.03873 149.04209 6010 ft 151 kts 171°
2026-04-21 14:08 -35.04922 149.04371 6007 ft 151 kts 171°
2026-04-21 14:09 -35.05958 149.04531 6013 ft 150 kts 171°
2026-04-21 14:09 -35.06999 149.04690 6003 ft 151 kts 171°
2026-04-21 14:09 -35.08039 149.04850 6008 ft 151 kts 171°
2026-04-21 14:09 -35.09045 149.05174 5991 ft 149 kts 154°
2026-04-21 14:10 -35.09872 149.05888 5992 ft 148 kts 136°
2026-04-21 14:10 -35.10463 149.06959 5822 ft 157 kts 116°
2026-04-21 14:10 -35.10685 149.08248 5648 ft 156 kts 95°
2026-04-21 14:10 -35.10609 149.09613 5414 ft 163 kts 89°
2026-04-21 14:11 -35.10500 149.11003 5196 ft 165 kts 88°
2026-04-21 14:11 -35.10426 149.11932 5044 ft 166 kts 88°
2026-04-21 14:11 -35.10369 149.13292 4999 ft 154 kts 96°
2026-04-21 14:11 -35.10498 149.14539 4999 ft 144 kts 105°
2026-04-21 14:12 -35.10784 149.15689 5002 ft 140 kts 114°
2026-04-21 14:12 -35.11382 149.17070 5005 ft 139 kts 125°
2026-04-21 14:12 -35.11777 149.17704 4998 ft 138 kts 131°
2026-04-21 14:12 -35.12448 149.18521 4998 ft 135 kts 139°
2026-04-21 14:13 -35.13214 149.19199 4960 ft 139 kts 147°
2026-04-21 14:13 -35.14101 149.19738 4779 ft 148 kts 155°
2026-04-21 14:13 -35.15110 149.20102 4584 ft 154 kts 165°
2026-04-21 14:13 -35.16205 149.20241 4392 ft 161 kts 175°
2026-04-21 14:14 -35.17331 149.20122 4190 ft 164 kts 187°
2026-04-21 14:14 -35.18449 149.19774 3979 ft 167 kts 189°
2026-04-21 14:14 -35.19599 149.19521 3767 ft 168 kts 182°
2026-04-21 14:14 -35.20780 149.19444 3555 ft 168 kts 175°
2026-04-21 14:15 -35.21900 149.19444 3532 ft 159 kts 178°
2026-04-21 14:15 -35.23011 149.19401 3319 ft 160 kts 176°
2026-04-21 14:15 -35.24130 149.19394 3055 ft 161 kts 178°
2026-04-21 14:15 -35.25252 149.19398 2835 ft 158 kts 175°
2026-04-21 14:16 -35.26285 149.19419 2560 ft 139 kts 176°
2026-04-21 14:16 -35.27177 149.19434 2347 ft 115 kts 178°
2026-04-21 14:16 -35.27909 149.19425 2160 ft 98 kts 177°
2026-04-21 14:16 -35.28579 149.19435 2004 ft 96 kts 175°
2026-04-21 14:17 -35.29246 149.19439 1892 ft 93 kts 176°
2026-04-21 14:17 -35.29755 149.19445 1874 ft 63 kts 179°
2026-04-21 14:17 -35.30315 149.19448 1928 ft 93 kts 176°
2026-04-21 14:17 -35.31082 149.19438 1926 ft 123 kts 176°
2026-04-21 14:18 -35.31891 149.19430 2505 ft 95 kts 176°
2026-04-21 14:18 -35.32624 149.19477 2658 ft 115 kts 151°
2026-04-21 14:18 -35.33017 149.20270 2854 ft 121 kts 88°
2026-04-21 14:18 -35.32945 149.21326 3025 ft 131 kts 89°
2026-04-21 14:19 -35.32487 149.22283 3042 ft 144 kts 26°
2026-04-21 14:19 -35.31485 149.22315 3095 ft 147 kts 358°
2026-04-21 14:19 -35.30544 149.21923 3090 ft 153 kts 317°
2026-04-21 14:19 -35.29900 149.20890 3082 ft 153 kts 307°
2026-04-21 14:20 -35.29259 149.19878 2928 ft 144 kts 310°
2026-04-21 14:20 -35.28676 149.18948 2802 ft 131 kts 308°
2026-04-21 14:20 -35.28317 149.17981 2707 ft 121 kts 259°
2026-04-21 14:20 -35.28759 149.17191 2527 ft 112 kts 205°
2026-04-21 14:21 -35.29394 149.17350 2375 ft 97 kts 122°
2026-04-21 14:21 -35.29738 149.18013 2050 ft 87 kts 129°
2026-04-21 14:21 -35.30095 149.18553 1904 ft 80 kts 131°
2026-04-21 14:21 -35.30402 149.19001 1874 ft 55 kts 130°
2026-04-21 14:22 -35.30726 149.19483 1929 ft 85 kts 129°
2026-04-21 14:22 -35.31116 149.20040 2301 ft 85 kts 131°
2026-04-21 14:22 -35.31287 149.20694 2607 ft 92 kts 59°
2026-04-21 14:22 -35.30752 149.21173 2815 ft 102 kts 39°
2026-04-21 14:23 -35.30121 149.20920 2717 ft 128 kts 307°
2026-04-21 14:23 -35.29621 149.20032 2747 ft 124 kts 303°
2026-04-21 14:23 -35.29144 149.19220 2790 ft 114 kts 309°
2026-04-21 14:23 -35.28653 149.18473 2740 ft 101 kts 310°
2026-04-21 14:24 -35.28641 149.17732 2414 ft 92 kts 221°
2026-04-21 14:24 -35.29202 149.17495 2259 ft 92 kts 159°
2026-04-21 14:24 -35.29683 149.17942 2106 ft 81 kts 129°
2026-04-21 14:24 -35.30016 149.18436 1921 ft 75 kts 129°
2026-04-21 14:25 -35.30324 149.18889 1874 ft 55 kts 130°
2026-04-21 14:25 -35.30634 149.19341 1975 ft 80 kts 129°
2026-04-21 14:25 -35.31029 149.19875 2212 ft 87 kts 128°
2026-04-21 14:25 -35.31453 149.20440 2448 ft 96 kts 132°
2026-04-21 14:26 -35.31937 149.21089 2637 ft 111 kts 130°
2026-04-21 14:26 -35.32447 149.21901 2825 ft 128 kts 123°
2026-04-21 14:26 -35.32966 149.22833 3000 ft 136 kts 123°
2026-04-21 14:26 -35.33493 149.23816 3175 ft 139 kts 123°
2026-04-21 14:27 -35.33982 149.24836 3340 ft 140 kts 110°
2026-04-21 14:27 -35.33917 149.26011 3516 ft 143 kts 71°
2026-04-21 14:27 -35.33308 149.27002 3692 ft 149 kts 49°
2026-04-21 14:27 -35.32584 149.27849 4023 ft 139 kts 49°
2026-04-21 14:28 -35.31905 149.28669 4392 ft 135 kts 50°
2026-04-21 14:28 -35.31274 149.29451 4764 ft 128 kts 50°
2026-04-21 14:28 -35.30647 149.30230 5147 ft 127 kts 47°
2026-04-21 14:28 -35.30045 149.30927 5297 ft 122 kts 50°
2026-04-21 14:29 -35.29431 149.31676 5275 ft 124 kts 49°
2026-04-21 14:29 -35.28799 149.32400 5272 ft 132 kts 29°
2026-04-21 14:29 -35.27852 149.32411 5251 ft 146 kts 344°
2026-04-21 14:29 -35.27030 149.31653 5266 ft 155 kts 317°
2026-04-21 14:30 -35.26273 149.30705 5262 ft 154 kts 316°
2026-04-21 14:30 -35.25549 149.29761 5268 ft 152 kts 316°
2026-04-21 14:30 -35.24826 149.28811 5269 ft 153 kts 315°
2026-04-21 14:30 -35.24096 149.27862 5263 ft 152 kts 315°
2026-04-21 14:31 -35.23375 149.26921 5264 ft 151 kts 316°
2026-04-21 14:31 -35.22689 149.25908 5069 ft 163 kts 300°
2026-04-21 14:31 -35.22434 149.24529 4813 ft 169 kts 276°
2026-04-21 14:31 -35.22357 149.23103 4556 ft 167 kts 274°
2026-04-21 14:32 -35.22292 149.21687 4298 ft 166 kts 273°
2026-04-21 14:32 -35.22450 149.20313 4017 ft 165 kts 240°
2026-04-21 14:32 -35.23213 149.19325 3749 ft 162 kts 215°
2026-04-21 14:32 -35.24071 149.18427 3565 ft 160 kts 212°
2026-04-21 14:33 -35.24968 149.17801 3557 ft 141 kts 195°
2026-04-21 14:33 -35.25901 149.17435 3323 ft 139 kts 184°
2026-04-21 14:33 -35.26847 149.17233 3075 ft 140 kts 181°
2026-04-21 14:33 -35.27776 149.17085 2797 ft 128 kts 184°
2026-04-21 14:34 -35.28610 149.17115 2579 ft 111 kts 156°
2026-04-21 14:34 -35.29256 149.17469 2320 ft 96 kts 141°
2026-04-21 14:34 -35.29708 149.17980 2037 ft 86 kts 128°
2026-04-21 14:34 -35.30059 149.18503 1886 ft 72 kts 131°
2026-04-21 14:35 -35.30302 149.18857 1874 ft 28 kts 131°
2026-04-21 14:35 -35.30403 149.18964 1874 ft 11 kts 212°
2026-04-21 14:35 -35.30436 149.18880 1874 ft 13 kts 249°
2026-04-21 14:35 -35.30473 149.18778 1874 ft 8 kts 292°
2026-04-21 14:36 -35.30458 149.18758 1874 ft 0 kts 310°